Weather History for El Dorado, AR

Change the Weather History Date:

Sunday, January 5, 2014

  Actual Average Record
Temperature  
Mean Temperature 39 °F 44 °F  
Max Temperature 55 °F 54 °F 75 °F (1922)
Min Temperature 23 °F 33 °F 13 °F (1959)
Degree Days  
Heating Degree Days 26 22  
Month to date heating degree days 128 108  
Since 1 July heating degree days 1352 1195  
Cooling Degree Days 0 0  
Month to date cooling degree days 0 0  
Year to date cooling degree days 0 0  
Moisture  
Dew Point 34 °F    
Average Humidity 78    
Maximum Humidity 93    
Minimum Humidity 63    
Precipitation  
Precipitation 0.06 in 0.14 in 2.80 in (1932)
Month to date precipitation 0.06 0.68  
Year to date precipitation 0.06 0.68  
Snow  
Snow 0.00 in - - ()
Month to date snowfall 0.0  
Since 1 July snowfall T  
Snow Depth 0.00 in    
Sea Level Pressure  
Sea Level Pressure 30.01 in    
Wind  
Wind Speed 13 mph (West)    
Max Wind Speed 24 mph    
Max Gust Speed 33 mph    
Visibility 9 miles    
Events Rain    
T = Trace of Precipitation, MM = Missing Value Source: NWS Daily Summary

Daily Weather History Graph

Daily Weather History Graph

Search for Another Location

Airport:

Trip Planner

Search our weather history database for the weather conditions in past years. The results will help you decide how hot, cold, wet, or windy it might be!

Date:

Astronomy

Jan. 05, 2014 Rise Set
Actual Time 7:15 AM CST 5:18 PM CST
Civil Twilight 6:48 AM CST 5:45 PM CST
Nautical Twilight 6:17 AM CST 6:16 PM CST
Astronomical Twilight 5:47 AM CST 6:46 PM CST
Moon 10:13 AM CST (1/5) 10:28 PM CST (1/5)
Length of Visible Light 10h 57m
Length of Day
10h 02m
Waxing Crescent, 25% of the Moon is Illuminated
Jan 5
Waxing Crescent
Jan 7
First Quarter
Jan 15
Full
Jan 23
Last Quarter
Jan 30
New

Hourly Weather History & Observations

Time (CST) Temp. Windchill Dew Point Humidity Pressure Visibility Wind Dir Wind Speed Gust Speed Precip Events Conditions
12:53 AM 55.0 °F - 46.9 °F 74% 29.88 in 10.0 mi SE 9.2 mph - N/A   Overcast
1:53 AM 55.0 °F - 46.9 °F 74% 29.87 in 10.0 mi SSE 11.5 mph - N/A   Overcast
2:12 AM 55.0 °F - 46.9 °F 74% 29.86 in 10.0 mi SE 13.8 mph - N/A   Overcast
2:53 AM 54.0 °F - 46.0 °F 75% 29.84 in 10.0 mi SSE 12.7 mph - N/A   Overcast
3:53 AM 54.0 °F - 46.9 °F 77% 29.84 in 10.0 mi SSE 11.5 mph - N/A   Overcast
4:53 AM 53.1 °F - 46.9 °F 80% 29.82 in 10.0 mi SE 6.9 mph - N/A   Overcast
5:16 AM 54.0 °F - 46.9 °F 77% 29.82 in 10.0 mi SSE 9.2 mph - N/A   Overcast
5:53 AM 53.1 °F - 48.0 °F 83% 29.81 in 10.0 mi SSE 8.1 mph - 0.00 in   Overcast
6:43 AM 53.1 °F - 48.0 °F 83% 29.80 in 10.0 mi SSE 11.5 mph - 0.00 in   Overcast
6:53 AM 53.1 °F - 48.9 °F 86% 29.80 in 10.0 mi SSE 8.1 mph 18.4 mph 0.00 in   Overcast
7:53 AM 53.1 °F - 51.1 °F 93% 29.80 in 10.0 mi South 10.4 mph - 0.00 in Rain Light Rain
8:53 AM 53.1 °F - 52.0 °F 96% 29.80 in 8.0 mi South 10.4 mph - 0.01 in Rain Light Rain
9:11 AM 54.0 °F - 53.1 °F 97% 29.82 in 4.0 mi SW 11.5 mph - 0.00 in Rain Light Rain
9:41 AM 52.0 °F - 50.0 °F 93% 29.86 in 6.0 mi West 16.1 mph 23.0 mph 0.01 in Rain Light Rain
9:53 AM 50.0 °F - 48.9 °F 96% 29.86 in 4.0 mi West 16.1 mph 23.0 mph 0.01 in Rain Light Rain
10:26 AM 46.9 °F - 46.0 °F 97% 29.89 in 3.0 mi West 17.3 mph 26.5 mph 0.03 in Rain Rain
10:53 AM 41.0 °F 31.9 °F 37.9 °F 89% 29.93 in 9.0 mi West 19.6 mph 29.9 mph 0.04 in   Overcast
11:00 AM 39.9 °F 30.8 °F 37.0 °F 89% 29.93 in 10.0 mi West 18.4 mph 33.4 mph N/A   Overcast
11:53 AM 36.0 °F 26.0 °F 33.1 °F 89% 29.95 in 10.0 mi WNW 17.3 mph 24.2 mph N/A   Overcast
12:53 PM 35.1 °F 26.4 °F 30.9 °F 85% 29.95 in 10.0 mi West 12.7 mph 27.6 mph N/A   Overcast
1:42 PM 35.1 °F 24.5 °F 28.9 °F 78% 29.98 in 10.0 mi WNW 18.4 mph 24.2 mph N/A   Overcast
1:53 PM 35.1 °F 25.5 °F 28.9 °F 78% 29.98 in 10.0 mi WNW 15.0 mph 23.0 mph N/A   Overcast
2:53 PM 34.0 °F 23.4 °F 25.0 °F 70% 30.04 in 10.0 mi WNW 17.3 mph 26.5 mph N/A   Overcast
3:53 PM 32.0 °F 20.8 °F 23.0 °F 69% 30.08 in 10.0 mi WNW 17.3 mph 27.6 mph N/A   Overcast
4:53 PM 30.9 °F 20.2 °F 21.0 °F 67% 30.13 in 10.0 mi WNW 15.0 mph 26.5 mph N/A   Overcast
5:53 PM 28.9 °F 18.2 °F 18.0 °F 64% 30.18 in 10.0 mi WNW 13.8 mph 24.2 mph N/A   Overcast
6:41 PM 28.0 °F 15.3 °F 17.1 °F 63% 30.23 in 10.0 mi NW 18.4 mph 26.5 mph N/A   Overcast
6:53 PM 28.0 °F 17.0 °F 18.0 °F 66% 30.24 in 10.0 mi NW 13.8 mph - N/A   Overcast
7:11 PM 28.0 °F 16.1 °F 17.1 °F 63% 30.26 in 10.0 mi NW 16.1 mph 26.5 mph N/A   Overcast
7:24 PM 27.0 °F 14.7 °F 16.0 °F 63% 30.26 in 10.0 mi NW 16.1 mph 26.5 mph N/A   Overcast
7:53 PM 27.0 °F 14.3 °F 15.1 °F 61% 30.29 in 10.0 mi NW 17.3 mph 24.2 mph N/A   Overcast
8:53 PM 25.0 °F 13.6 °F 15.1 °F 66% 30.33 in 10.0 mi NW 12.7 mph 23.0 mph N/A   Partly Cloudy
9:53 PM 24.1 °F 13.7 °F 15.1 °F 69% 30.37 in 10.0 mi NW 10.4 mph 23.0 mph N/A   Clear
10:53 PM 24.1 °F 12.5 °F 15.1 °F 69% 30.40 in 10.0 mi NW 12.7 mph - N/A   Clear
11:53 PM 23.0 °F 11.7 °F 14.0 °F 68% 30.43 in 10.0 mi NW 11.5 mph - N/A   Clear